DMSP 5D-2 F13 DEB, 40576

Orbit data source: Space-Track

DMSP 5D-2 F13 DEB, 40576 is space debris in SSO originally from a launch on Fri, 24 Mar 1995 UTC launched from the Air Force Western Test Range (AFWTR). Debris objects in space refer to the collection of defunct objects orbiting the Earth. Examples of debris include non-operational satellites, rocket bodies, and fragments generated from explosions, collisions, or faulty payload assembly.

Loading next visibility...
Identifier
40576, 1995-015EK
Orbit
SSO
Country
Flag of USUS
Related business
Manufacturer
Unknown
Mission
Spacecraft
Bus & Motor
Unknown
Mass
Unknown
Launch date (UTC)
1995-03-24 (31 years ago)
Launch vehicle
Unknown
Launch site
Air Force Western Test Range (AFWTR)
Object type
Payload
Rocket body
Debris
Shape & HBR
Unknown shape, 0.1 m
Radar Cross Section
Small (<0.1 m²)

Expand to show TLE details & history
Last TLE update: 3 days ago

TLE from 3 days ago
0 DMSP 5D-2 F13 DEB
1 40576U 95015EK  26170.13235644  .00006876  00000-0  14806-2 0  9994
2 40576  98.5545 236.8387 0024397 152.7390 207.5095 14.58608612585769
Epoch: 2026-06-19T03:10Z
TLE epoch observation values (Epoch: 2026-06-19T03:10:35.596Z)
Latitude
0.00003°
Longitude
-78.17534°
Altitude
715.966 km
Speed
7.489 km/s
True Right ascension
15h 47m 21s
True Declination
0° 00' 00"
Sunlit
Object was in full shadow at epoch
Visualization orbit readout
Latitude
Unknown
Longitude
Unknown
Altitude
Unknown
Speed
Unknown
Apparent Right ascension
Unknown
Apparent Declination
Unknown
Sunlit
N/A
Visualization observer readout
Local Sidereal Time
15:11:59
Azimuth
Unknown
Elevation
Unknown
Doppler factor
Unknown
Orbital elements
Apogee altitude
712.026 km
Perigee altitude
677.514 km
Semi-major axis
7,072.907 km
Eccentricity
0.00244
Inclination
98.5545°
RAAN
236.8387°
Arg. of periapsis
152.739°
True anomaly
207.38072°
Mean anomaly
207.5095°
Eccentric anomaly
207.44507°
Mean motion
3.64877 °/min
Orbital period
98.66 mins
BSTAR
0.0014806
Loading maneuver chart data...
Computing Atmospheric mass density...

Documentation

Showing up to 5 results
|